sat.trackr.live / text

‹ back to catalog

STARLINK-2627

NORAD 48687 · 2021-044BB

PAYLOAD ACTIVE UNKNOWN

§ Identity

Operator
Country
US
Launch date
2021-05-26
Launch site
AFETR
Launch vehicle
Mass (kg)
RCS (m²)

Purposes: comms

External: N2YO · Heavens-Above · Gunter

§ Orbital elements

Epoch: 2026-09-19T22:21:58.484160Z

Period
94.01 min
Inclination
53.1593°
Eccentricity
0.0001427
Mean motion
15.31707505 rev/d
Perigee alt
469.7 km
Apogee alt
471.7 km
Semi-major
6,848.9 km
B*
-3.1255e-5
RAAN
241.0058°
Arg perigee
114.8563°
Mean anomaly
245.2587°
Rev number
29,426

§ Raw data

STARLINK-26271 48687U 21044BB  26262.93192690 -.00001335  00000+0 -31255-4 0  99942 48687  53.1593 241.0058 0001427 114.8563 245.2587 15.31707505294263

JSON: /api/v1/satellites/48687 · /tle

For live sub-satellite position, see the globe view (requires WebGL).

§ Visibility from observer

Set your observer location to see the next 7 days of passes ≥ 10°. The values pass through the URL so the page stays shareable.

No JS? Fill the form by hand. The geolocation button needs JavaScript.